This is the latest recevied weather packets stored in our database for station/object OE5ERN-10. If no packets are shown the sender has not sent any weather packets the latest 10 day(s).
| Time | Temp. | Humidity | Pressure | Rain* | Wind** | Luminosity | Snow |
|---|---|---|---|---|---|---|---|
| 1776970557 | 11.11° C | 44% | 1024.1 hPa | 0 mm | - | - | - |
| 1776969657 | 11.67° C | 43% | 1023.8 hPa | 0 mm | - | - | - |
| 1776968757 | 12.78° C | 39% | 1023.7 hPa | 0 mm | - | - | - |
| 1776967857 | 13.33° C | 37% | 1023.5 hPa | 0 mm | - | - | - |
| 1776966957 | 15° C | 34% | 1023.3 hPa | 0 mm | - | - | - |
| 1776966057 | 16.67° C | 31% | 1023.1 hPa | 0 mm | - | - | - |
| 1776965157 | 18.33° C | 31% | 1023.2 hPa | 0 mm | - | - | - |
| 1776964257 | 18.89° C | 30% | 1023.2 hPa | 0 mm | - | - | - |
| 1776963357 | 18.89° C | 30% | 1023.3 hPa | 0 mm | - | - | - |
| 1776962457 | 18.89° C | 30% | 1023.3 hPa | 0 mm | - | - | - |
| 1776961557 | 18.89° C | 29% | 1023.2 hPa | 0 mm | - | - | - |
| 1776960657 | 18.89° C | 28% | 1023.6 hPa | 0 mm | - | - | - |
| 1776959757 | 18.89° C | 29% | 1023.8 hPa | 0 mm | - | - | - |
| 1776958857 | 18.89° C | 28% | 1023.9 hPa | 0 mm | - | - | - |
| 1776957957 | 18.89° C | 29% | 1024 hPa | 0 mm | - | - | - |
| 1776957057 | 18.33° C | 30% | 1024.2 hPa | 0 mm | - | - | - |
| 1776956157 | 18.33° C | 28% | 1024.2 hPa | 0 mm | - | - | - |
| 1776955257 | 18.33° C | 28% | 1024.4 hPa | 0 mm | - | - | - |
| 1776954357 | 18.89° C | 30% | 1024.3 hPa | 0 mm | - | - | - |
| 1776953457 | 18.89° C | 28% | 1024.6 hPa | 0 mm | - | - | - |
| 1776952557 | 19.44° C | 30% | 1024.9 hPa | 0 mm | - | - | - |
| 1776951657 | 18.89° C | 30% | 1024.9 hPa | 0 mm | - | - | - |
| 1776950757 | 18.89° C | 30% | 1025.2 hPa | 0 mm | - | - | - |
| 1776949857 | 18.89° C | 31% | 1025.5 hPa | 0 mm | - | - | - |
| 1776948957 | 18.33° C | 31% | 1025.5 hPa | 0 mm | - | - | - |
* Rain latest hour (hover to see other rain measurements)
** Current wind speed in m/s (hover to see current wind gust speed)